User: anonymous
Location: Clinton NY
(43.0598°N, 75.3602°W)
Time: 05:49:07
(UTC-04:00)
Language:

Iridium 11 - Orbit

View from above orbital plane
View from above orbital plane
View from above satellite
View from above satellite

Ground track
Ground track

The orbit data is extracted from the following two-line orbital elements,

1 25578U 98074B   14261.49152951  .00000328  00000-0  11019-3 0   220
2 25578 086.3960 314.7489 0002196 107.3946 024.8237 14.34219015833689
Epoch (UTC): 18 September 2014 11:47:48
Eccentricity: 0.0002196
inclination: 86.3960°
perigee height: 776 km
apogee height: 779 km
right ascension of ascending node: 314.7489°
argument of perigee: 107.3946°
revolutions per day: 14.34219015
mean anomaly at epoch: 24.8237°
orbit number at epoch: 83368

The dashed part of the orbit path shows where the satellite is in the earth's shadow,  

DLR